Weather History for Cleveland Burke, OH

Change the Weather History Date:

Friday, May 24, 2013

  Actual Average Record
Temperature  
Mean Temperature 44 °F -  
Max Temperature 48 °F 66 °F 89 °F (2007)
Min Temperature 43 °F 51 °F 43 °F (2013)
Degree Days  
Heating Degree Days 20    
Moisture  
Dew Point 36 °F    
Average Humidity 72    
Maximum Humidity 87    
Minimum Humidity 63    
Precipitation  
Precipitation 0.06 in - - ()
Sea Level Pressure  
Sea Level Pressure 30.25 in    
Wind  
Wind Speed 18 mph (NNW)    
Max Wind Speed 24 mph    
Max Gust Speed 32 mph    
Visibility 10 miles    
Events      
Averages and records for this station are not official NWS values.
T = Trace of Precipitation, MM = Missing Value Source: NWS Daily Summary

Daily Weather History Graph

Daily Weather History Graph

Search for Another Location

Airport:

Trip Planner

Search our weather history database for the weather conditions in past years. The results will help you decide how hot, cold, wet, or windy it might be!

Date:

Astronomy

May. 24, 2013 Rise Set
Actual Time 5:59 AM EDT 8:47 PM EDT
Civil Twilight 5:27 AM EDT 9:20 PM EDT
Nautical Twilight 4:46 AM EDT 10:01 PM EDT
Astronomical Twilight 3:59 AM EDT 10:49 PM EDT
Moon 8:28 PM EDT (5/24) 5:31 AM EDT (5/24)
Length of Visible Light 15h 53m
Length of Day
14h 48m
Full, 100% of the Moon is Illuminated
May 24
Full
May 25
Full
May 31
Last Quarter
Jun 8
New
Jun 16
First Quarter

Hourly Weather History & Observations

Time (EDT) Temp. Windchill Dew Point Humidity Pressure Visibility Wind Dir Wind Speed Gust Speed Precip Events Conditions
12:53 AM 45.0 °F 36.2 °F 41.0 °F 86% 30.07 in 10.0 mi North 24.2 mph 29.9 mph 0.00 in   Overcast
1:20 AM 44.6 °F 35.7 °F 41.0 °F 87% 30.08 in 10.0 mi North 24.2 mph 31.1 mph N/A   Overcast
1:53 AM 45.0 °F 36.6 °F 39.9 °F 82% 30.09 in 10.0 mi North 21.9 mph 28.8 mph N/A   Overcast
2:53 AM 45.0 °F 36.2 °F 39.0 °F 80% 30.10 in 10.0 mi North 24.2 mph 32.2 mph 0.01 in   Overcast
3:53 AM 45.0 °F 37.6 °F 37.9 °F 76% 30.12 in 10.0 mi North 17.3 mph 26.5 mph N/A   Overcast
4:53 AM 45.0 °F 37.9 °F 37.9 °F 76% 30.14 in 10.0 mi North 16.1 mph 25.3 mph 0.01 in   Overcast
5:53 AM 44.1 °F 36.2 °F 37.0 °F 76% 30.16 in 10.0 mi North 18.4 mph - N/A   Overcast
6:53 AM 43.0 °F 34.8 °F 35.1 °F 74% 30.20 in 10.0 mi North 18.4 mph 26.5 mph N/A   Mostly Cloudy
7:53 AM 43.0 °F 35.7 °F 35.1 °F 74% 30.22 in 10.0 mi North 15.0 mph - N/A   Overcast
8:53 AM 43.0 °F 35.7 °F 35.1 °F 74% 30.23 in 10.0 mi North 15.0 mph 24.2 mph 0.01 in   Overcast
9:53 AM 43.0 °F 36.0 °F 35.1 °F 74% 30.26 in 10.0 mi NNW 13.8 mph 21.9 mph N/A   Overcast
10:53 AM 43.0 °F 35.7 °F 35.1 °F 74% 30.28 in 10.0 mi NNW 15.0 mph - N/A   Overcast
11:53 AM 43.0 °F 35.7 °F 34.0 °F 71% 30.31 in 10.0 mi NNW 15.0 mph 23.0 mph 0.01 in   Overcast
12:53 PM 44.1 °F 36.8 °F 34.0 °F 68% 30.31 in 10.0 mi NNW 16.1 mph 23.0 mph N/A   Overcast
1:02 PM 44.6 °F 37.4 °F 33.8 °F 66% 30.30 in 10.0 mi NNW 16.1 mph 23.0 mph N/A   Overcast
1:34 PM 44.6 °F 38.1 °F 33.8 °F 66% 30.31 in 10.0 mi NNW 13.8 mph 20.7 mph N/A   Overcast
1:45 PM 44.6 °F 37.2 °F 35.6 °F 71% 30.31 in 10.0 mi North 17.3 mph 23.0 mph N/A   Overcast
1:53 PM 44.1 °F 36.5 °F 35.1 °F 71% 30.32 in 10.0 mi NNW 17.3 mph - N/A   Overcast
2:11 PM 44.6 °F 37.4 °F 35.6 °F 71% 30.31 in 10.0 mi NNW 16.1 mph - N/A   Overcast
2:53 PM 46.0 °F 39.9 °F 34.0 °F 63% 30.33 in 10.0 mi NNW 13.8 mph 26.5 mph N/A   Overcast
3:53 PM 46.0 °F 39.3 °F 35.1 °F 66% 30.33 in 10.0 mi NNW 16.1 mph 24.2 mph 0.01 in   Overcast
4:53 PM 45.0 °F 37.6 °F 35.1 °F 68% 30.34 in 10.0 mi NW 17.3 mph 23.0 mph N/A   Overcast
5:53 PM 46.0 °F 39.0 °F 35.1 °F 66% 30.35 in 10.0 mi NNW 17.3 mph 23.0 mph N/A   Overcast
6:53 PM 46.0 °F 40.6 °F 34.0 °F 63% 30.34 in 10.0 mi NNW 11.5 mph 19.6 mph N/A   Mostly Cloudy
7:53 PM 46.0 °F 41.0 °F 34.0 °F 63% 30.32 in 10.0 mi North 10.4 mph - N/A   Partly Cloudy
8:53 PM 45.0 °F 40.1 °F 34.0 °F 65% 30.31 in 10.0 mi North 9.2 mph - 0.01 in   Clear
9:53 PM 45.0 °F 39.7 °F 36.0 °F 71% 30.31 in 10.0 mi NNW 10.4 mph - N/A   Clear
10:53 PM 45.0 °F 40.1 °F 36.0 °F 71% 30.32 in 10.0 mi North 9.2 mph - N/A   Clear
11:53 PM 46.0 °F 40.2 °F 34.0 °F 63% 30.32 in 10.0 mi North 12.7 mph - N/A   Clear